Wind_Speed
30 29 28 26 26 26 26 25 24 25 25 24 23 22 23 23 23 24 25 25 26 25 25 25 25 26 26 27 27 28 28 29 30 31 32 33 34 34 34 34 34 33 33 32 32 31 31 31 31 31 31 31 31 31 32 32 32 33 33 33 33 33 33 34 34 34 34 35 35 36 37 38 39 39 38 36 36 37 40 44 45 45 43 41 40 38
30 29 28 26 26 26 26 26 24 24 25 24 24 23 23 23 24 25 25 26 27 27 27 27 27 26 27 27 28 28 29 29 30 31 32 33 33 34 34 34 33 33 33 32 32 31 31 30 31 31 31 32 32 32 31 31 32 33 33 34 34 34 33 33 34 34 34 34 34 35 36 37 38 39 38 36 34 34 37 40 43 44 43 41 40 38
29 29 28 27 26 26 26 26 25 24 25 25 25 24 24 25 26 27 27 28 29 29 30 30 29 29 29 29 29 29 29 29 30 31 31 32 32 33 33 33 33 33 32 32 31 31 30 30 30 30 31 32 32 32 32 32 32 32 33 33 33 34 34 34 34 34 34 34 34 35 35 36 37 37 37 35 33 33 34 36 39 41 41 40 39 38
29 28 28 27 27 27 27 26 26 25 25 25 26 26 26 27 28 28 29 29 29 30 31 31 31 31 31 31 31 30 30 30 30 30 31 31 32 32 32 33 33 32 32 32 31 31 30 30 30 30 30 31 31 32 32 32 32 32 32 33 33 33 34 34 34 34 35 35 35 35 35 35 35 34 34 33 33 32 33 33 35 37 39 39 39 38
30 28 28 27 26 26 27 26 26 25 25 25 25 26 27 27 28 29 29 29 30 30 31 31 32 32 32 32 31 31 31 30 30 30 30 31 31 32 32 32 33 32 32 32 31 31 30 30 30 30 30 30 31 31 31 32 32 32 32 33 33 33 33 33 34 34 35 35 35 35 35 35 34 32 31 31 32 33 32 31 30 32 35 37 37 37
30 29 28 26 26 26 26 25 25 24 24 24 25 26 26 27 28 28 28 29 29 30 31 31 31 32 32 32 32 32 31 30 30 30 30 31 31 32 32 32 32 32 32 32 31 31 30 30 30 30 30 30 30 31 31 31 31 32 32 32 32 33 33 33 33 33 34 35 35 36 35 34 33 32 31 31 31 33 33 31 29 28 30 32 33 34
29 29 27 26 25 25 24 24 25 24 24 24 25 25 26 26 26 27 28 29 29 30 30 31 31 31 32 32 32 31 31 30 30 30 30 31 31 32 32 32 32 32 32 32 31 31 30 30 29 29 29 29 30 30 30 31 31 31 31 32 32 32 32 32 32 33 33 34 35 36 36 34 33 32 31 31 32 32 33 32 30 27 26 26 27 28
27 28 26 25 24 24 24 25 25 25 24 23 23 23 24 24 25 26 27 28 29 29 29 30 30 31 31 31 31 30 30 29 29 29 30 30 30 31 31 31 31 31 31 30 30 29 29 29 29 28 28 29 29 29 30 30 31 31 31 31 32 32 32 32 32 32 33 34 35 35 35 35 34 32 31 32 32 32 32 32 31 29 27 25 24 24
26 26 26 25 24 24 24 25 25 25 24 23 22 23 23 23 24 25 26 26 27 27 27 27 28 29 30 30 30 29 29 29 29 29 29 29 30 30 30 30 30 29 29 29 28 28 28 28 28 28 28 28 28 29 29 30 30 31 31 31 32 32 32 32 32 32 32 33 34 35 35 35 34 33 33 32 32 32 32 32 32 31 29 27 25 24
27 26 26 27 26 25 23 24 26 26 24 23 23 23 23 23 24 25 25 26 26 26 25 26 26 27 28 28 28 28 28 29 29 29 29 29 29 29 29 28 28 28 27 27 27 27 27 27 27 27 28 28 28 29 29 30 30 31 31 31 32 32 32 32 32 32 32 33 33 34 34 34 34 34 33 33 32 32 32 32 32 32 31 29 28 27
26 27 26 26 26 26 25 24 24 24 23 23 24 25 25 24 24 23 23 25 26 26 25 26 26 26 26 26 26 26 26 27 28 29 29 29 28 28 28 27 27 27 26 26 26 26 26 27 27 27 28 28 28 29 29 30 30 30 31 31 32 32 32 32 32 32 32 32 33 33 33 34 34 34 33 33 33 33 32 32 32 32 31 31 30 29
25 25 24 24 23 23 23 23 23 22 22 22 21 21 23 25 24 24 23 24 25 26 26 26 26 26 25 25 24 24 24 25 26 27 28 28 28 28 27 27 27 27 27 26 26 26 26 27 27 27 27 27 27 28 28 28 29 29 30 30 31 31 32 32 32 32 32 32 32 33 33 33 33 33 33 34 34 34 33 33 32 32 32 31 31 30
24 23 22 22 21 21 21 22 22 22 21 20 18 18 19 22 24 24 23 24 26 26 26 26 26 26 26 25 24 23 23 24 25 26 26 26 27 27 27 27 27 27 27 27 27 28 28 27 26 26 25 26 26 26 26 26 27 27 28 29 29 30 31 31 32 32 32 32 32 32 32 32 32 32 33 33 34 34 34 34 33 33 32 32 32 31
22 22 20 19 20 20 21 21 20 19 20 21 21 21 22 23 23 22 22 24 25 25 25 24 24 25 25 25 24 24 24 24 24 25 25 25 25 25 25 26 27 27 27 27 27 28 28 27 26 26 25 25 25 25 25 26 26 26 26 27 27 28 29 30 31 31 31 32 32 32 32 32 31 31 32 32 33 34 34 34 34 33 33 32 33 33
19 18 16 15 17 20 21 21 20 20 21 22 22 23 24 23 22 22 21 22 23 23 22 22 23 24 24 24 24 24 24 24 24 24 25 25 25 24 24 24 25 26 26 26 27 28 28 26 26 26 26 26 27 27 27 26 25 25 25 25 26 26 27 28 29 30 30 31 31 32 32 31 31 31 31 31 32 33 33 34 34 34 33 33 33 34
19 17 14 13 16 20 21 21 20 20 21 22 22 22 22 22 22 22 21 21 21 20 18 17 16 17 20 23 23 23 24 24 24 24 25 25 25 24 23 23 24 25 25 25 26 27 27 26 26 26 26 27 27 27 26 25 25 25 25 25 25 25 26 26 27 28 29 30 30 31 31 31 31 31 30 31 31 31 32 33 34 34 33 33 33 33
20 18 17 16 17 19 22 21 21 20 21 21 21 21 22 22 22 22 22 21 19 17 15 13 8 5 10 17 20 20 22 23 23 24 24 24 24 23 22 22 23 24 25 25 26 26 26 26 26 26 27 27 26 26 25 25 25 25 25 25 25 25 25 25 25 26 27 28 29 30 30 30 30 30 30 30 30 30 31 32 34 34 34 32 31 31
18 18 18 16 17 19 21 21 21 20 20 20 20 21 22 22 22 21 21 20 18 16 15 14 10 5 3 8 13 17 18 20 21 21 21 21 22 22 22 22 23 24 25 25 26 26 26 25 25 26 26 26 25 24 24 24 25 25 25 25 25 25 25 25 25 25 25 26 27 28 29 29 29 29 29 30 30 29 30 31 34 35 35 34 32 30
15 16 17 17 18 19 20 20 20 20 20 20 20 20 20 21 21 20 20 19 18 17 16 14 14 13 11 12 15 17 16 17 18 18 17 18 19 21 21 21 22 23 24 25 26 26 25 25 25 26 25 25 25 24 24 24 25 25 25 25 25 25 25 25 24 24 25 25 25 26 27 27 28 28 29 29 28 28 28 29 33 36 37 36 34 31
15 16 16 16 16 17 17 19 20 20 20 21 21 20 19 20 19 19 19 19 20 20 19 17 16 17 18 19 20 19 17 15 15 16 15 16 18 19 20 20 21 22 23 24 25 25 25 25 25 26 25 25 24 24 24 25 25 25 25 25 25 25 25 25 24 24 24 24 25 25 25 26 26 27 27 27 27 26 26 27 31 36 39 39 37 35
20 20 22 20 18 17 17 18 20 21 22 22 21 20 20 19 19 18 19 19 19 20 20 19 19 20 21 21 21 20 18 15 14 14 13 14 16 19 19 19 20 21 22 24 25 24 24 24 25 25 25 25 25 24 24 24 24 25 25 25 25 25 25 24 24 24 24 24 24 25 25 25 25 25 26 26 26 25 24 25 28 32 38 41 40 38
24 24 25 25 23 22 22 23 24 25 24 23 21 20 20 19 19 19 20 20 19 19 20 20 22 23 23 22 22 21 18 17 16 15 13 11 14 18 19 18 18 19 21 23 23 23 23 23 24 25 25 25 24 24 24 24 24 24 24 24 24 24 25 24 24 24 24 24 24 24 25 25 25 25 24 25 25 25 24 24 25 28 34 39 41 40
27 27 28 27 27 26 27 27 27 26 26 24 23 23 22 22 22 21 21 21 21 21 22 23 24 24 23 22 22 21 20 19 18 17 14 7 10 17 18 17 17 18 20 22 22 22 22 22 24 25 25 24 24 23 23 23 23 23 24 24 24 24 24 24 24 24 24 23 23 24 24 25 25 25 24 24 24 24 24 24 24 25 29 35 39 40
29 29 29 29 29 30 29 29 28 28 27 26 26 27 27 27 27 26 25 24 23 23 22 22 22 21 22 22 21 21 21 20 19 17 15 11 13 18 19 17 16 17 20 21 21 20 21 22 23 24 24 24 23 23 23 23 23 23 23 24 24 24 24 25 24 24 24 23 23 23 24 24 25 25 24 23 23 23 23 23 23 23 24 29 34 37
29 30 30 31 32 32 31 30 29 29 28 28 28 28 29 29 29 28 27 26 24 22 20 19 17 17 18 19 18 19 21 20 19 18 15 14 16 19 20 18 17 17 19 20 20 19 20 21 22 23 24 24 24 23 22 22 22 23 23 23 24 24 24 24 24 24 24 24 23 23 23 24 24 25 25 24 23 23 23 23 23 22 23 25 30 35
30 31 31 32 32 32 31 31 30 30 29 29 29 28 28 27 26 25 24 23 22 20 17 14 12 13 17 17 16 17 19 19 20 20 18 16 16 18 20 19 18 18 19 19 19 18 19 20 21 22 23 24 24 23 22 22 22 22 23 23 23 23 24 24 24 24 24 24 23 23 23 23 23 24 24 24 24 23 22 22 21 21 22 24 28 33
31 32 32 32 32 32 32 32 32 32 32 31 31 30 28 25 23 20 19 20 20 18 15 9 7 10 14 14 15 17 18 18 19 21 21 18 16 16 19 19 18 18 18 18 18 18 18 19 20 21 22 23 23 23 23 22 22 22 22 23 23 23 23 23 23 23 24 24 23 23 23 23 23 23 24 24 24 23 23 22 20 19 20 21 26 31
32 33 33 33 33 33 33 33 33 33 33 33 33 32 31 27 21 17 17 19 19 18 15 10 7 7 7 9 13 17 18 18 19 20 21 19 16 16 19 19 18 17 17 17 17 18 18 19 20 21 21 22 22 23 23 23 22 22 22 22 22 22 22 22 22 22 23 23 23 22 22 22 22 22 22 23 24 23 23 22 20 18 18 19 23 27
32 32 32 32 32 32 32 32 33 33 33 33 33 33 32 30 25 20 19 20 19 17 15 13 11 9 8 12 15 17 17 18 19 20 20 18 16 17 20 19 17 16 15 14 15 16 17 19 20 21 21 22 22 23 23 23 23 22 22 22 21 21 21 21 21 21 21 21 22 22 22 22 22 21 22 22 23 23 22 22 20 18 18 18 20 23
30 30 30 31 31 31 31 31 31 31 32 32 32 32 32 31 29 26 23 21 19 17 16 16 15 15 13 12 10 10 12 18 20 20 20 17 15 17 19 18 17 16 14 11 8 8 12 16 18 20 21 21 22 22 23 23 23 23 22 22 22 21 21 21 20 20 20 20 21 21 22 22 22 21 21 21 22 22 22 22 21 20 19 19 19 19
27 27 27 27 27 27 27 27 28 28 29 29 30 31 32 32 31 29 25 22 21 20 18 17 17 17 15 7 3 3 5 15 20 20 21 19 17 18 19 17 16 17 16 12 4 1 4 8 12 15 17 18 19 20 21 21 21 22 22 22 22 22 21 21 20 19 19 19 20 20 20 21 21 21 21 20 21 21 22 22 21 21 21 20 18 17
24 23 23 23 23 23 23 23 24 25 25 26 28 29 30 31 31 29 27 25 23 22 21 20 19 19 18 12 8 7 6 14 17 19 21 20 19 20 19 17 16 17 17 17 12 6 3 2 6 11 12 14 16 17 18 18 19 19 20 20 21 22 21 20 19 19 18 18 18 18 19 19 20 20 20 20 20 20 21 22 22 22 21 20 18 16
21 21 20 20 21 21 21 22 22 23 23 24 25 27 28 29 30 30 29 27 26 25 24 22 21 20 19 18 17 16 17 18 18 18 20 20 19 18 18 17 16 16 16 17 17 14 9 6 8 11 12 13 14 15 15 16 16 17 18 19 20 21 21 20 19 19 18 18 17 17 17 17 17 18 18 19 19 19 20 22 23 23 23 21 19 17
20 20 20 20 20 20 21 21 22 22 23 24 25 25 26 27 28 28 29 29 28 27 26 25 23 21 20 18 18 20 22 22 20 19 19 21 19 17 17 17 16 16 15 14 15 15 13 13 12 12 12 13 14 14 15 15 15 16 17 18 19 20 20 20 19 19 18 18 17 17 17 16 16 16 16 17 17 18 19 21 23 24 24 23 22 19
20 20 20 20 20 20 20 20 21 22 23 25 26 26 26 26 27 27 28 29 29 29 29 29 28 26 23 20 17 17 20 22 22 20 19 21 20 18 17 17 17 16 14 13 12 12 10 13 13 12 11 12 13 15 15 15 16 16 17 17 18 19 19 19 18 18 17 17 17 17 17 16 16 15 15 15 15 16 17 19 22 24 25 25 24 22
19 19 18 18 17 17 18 19 20 21 23 25 26 26 27 27 27 28 28 29 29 29 30 31 30 30 28 25 22 21 21 22 21 20 20 22 22 20 17 17 18 17 15 14 13 11 9 10 12 13 12 9 10 12 14 15 16 16 17 17 18 18 18 18 17 17 16 16 16 16 16 16 16 15 15 14 14 14 14 16 19 23 25 26 26 25
15 15 15 15 16 16 18 20 21 22 23 24 25 26 26 27 28 29 29 30 30 30 29 30 30 31 30 29 28 27 26 24 22 21 21 22 22 21 19 18 18 18 17 15 14 13 11 9 8 10 10 9 8 9 12 13 14 15 16 17 18 18 18 17 17 16 15 15 15 15 15 14 14 14 14 13 13 13 13 12 14 18 22 26 27 28
12 14 16 17 18 20 21 22 23 23 22 22 22 23 24 26 28 30 31 31 31 30 29 29 29 30 30 30 31 31 30 27 25 23 22 22 22 22 21 19 19 19 19 18 17 15 13 7 5 4 4 8 11 12 12 12 13 14 15 17 17 17 17 17 16 16 16 15 15 15 14 14 13 13 12 12 12 13 13 13 12 13 17 22 27 30
16 18 20 22 23 24 24 23 24 24 23 22 22 22 23 24 26 28 29 30 30 30 29 29 28 28 29 30 30 31 30 29 28 26 24 23 23 23 22 21 20 19 20 19 19 18 16 11 7 5 3 5 9 12 13 13 13 14 14 15 16 16 17 17 16 16 16 16 15 15 14 13 13 12 11 11 11 12 13 13 13 13 13 18 25 29
20 22 23 25 25 25 24 23 24 23 21 19 18 19 21 21 22 22 24 25 26 27 28 28 27 27 28 29 29 29 30 30 29 28 27 25 24 24 23 22 21 20 20 19 19 18 17 15 14 13 11 9 8 10 11 12 13 13 13 12 12 14 16 17 17 17 16 16 16 15 14 13 12 12 11 10 10 10 11 12 12 11 11 12 17 23
21 22 23 23 23 22 21 21 20 20 19 19 20 21 21 21 21 20 21 22 22 23 24 25 25 25 26 27 28 28 29 29 29 29 28 27 26 25 25 24 22 21 20 19 19 19 18 17 16 15 15 13 12 12 12 12 13 13 13 12 12 13 15 16 17 17 16 16 16 16 15 14 13 12 11 10 10 10 10 11 11 10 9 8 11 17
19 20 19 19 18 18 18 19 20 21 22 22 22 21 21 20 19 19 19 19 20 21 21 22 22 22 22 23 25 26 27 28 28 28 28 28 27 27 26 25 24 22 21 19 19 19 19 18 17 16 16 15 14 13 12 13 14 14 14 14 14 14 13 14 15 16 16 16 16 16 16 15 14 13 12 11 10 10 10 10 10 10 9 8 10 15
17 18 19 20 20 22 23 24 24 23 22 21 20 20 19 18 17 16 17 18 19 19 19 20 20 19 19 19 20 22 24 25 26 26 26 26 27 27 27 26 25 23 21 19 18 18 18 19 18 18 17 17 15 14 13 13 14 14 15 15 14 12 9 11 13 15 16 16 17 16 16 16 15 14 12 12 11 10 9 10 10 11 11 11 11 12
19 20 21 21 21 22 22 22 21 20 19 18 18 18 18 18 17 17 17 17 18 18 17 17 17 17 17 17 18 19 20 22 23 23 24 25 25 26 26 26 26 25 23 21 19 17 17 17 17 18 18 17 16 15 15 14 14 14 15 16 15 14 11 11 12 14 16 16 17 17 17 16 15 14 13 12 11 10 10 10 10 11 11 12 12 13
19 19 19 19 19 19 19 18 18 18 18 18 17 18 18 18 18 17 17 17 17 17 16 16 14 13 13 15 16 17 17 18 19 20 21 22 23 24 25 26 26 25 25 23 22 19 17 15 16 17 17 17 17 16 16 15 15 15 15 16 16 17 17 16 15 14 15 16 17 17 17 17 16 14 13 13 12 11 11 11 11 11 12 12 13 13
17 17 17 17 17 16 16 17 17 18 18 18 18 18 19 19 18 17 16 16 17 17 17 17 16 13 12 13 15 15 14 14 15 17 18 19 21 22 24 25 25 25 25 24 23 22 20 18 16 15 15 15 15 16 17 17 16 15 16 15 16 16 17 16 15 15 16 17 17 18 17 17 16 14 13 13 13 12 12 12 12 12 12 12 13 13
17 17 17 17 17 17 17 17 17 17 18 18 19 19 19 19 19 18 18 17 18 18 18 18 17 16 15 15 14 13 13 13 13 14 15 17 19 20 22 24 25 26 26 25 24 23 22 21 19 16 14 13 12 13 15 16 16 16 16 16 16 15 15 15 16 16 17 17 18 18 18 17 16 15 15 14 13 13 13 13 13 13 13 13 13 13
17 17 17 17 17 17 17 17 17 17 17 18 18 18 19 19 18 17 17 17 17 17 17 16 15 15 16 16 15 15 14 13 13 14 14 15 16 18 20 21 23 24 25 25 24 23 23 23 22 20 17 15 13 12 13 14 15 16 16 16 16 16 15 16 16 17 17 18 18 18 18 17 17 16 16 15 14 13 14 14 14 14 14 14 14 14
17 17 17 17 16 16 16 17 17 17 18 18 18 18 18 18 18 17 17 17 18 17 16 15 14 14 14 14 15 15 15 14 14 14 14 14 15 16 17 19 20 21 21 22 22 22 22 23 24 24 22 20 17 15 13 13 13 14 16 16 16 16 16 16 17 17 17 18 19 19 19 19 19 18 17 15 14 14 14 15 15 15 16 16 16 16
17 17 17 17 16 16 17 18 18 18 18 18 18 18 17 18 18 18 19 19 19 18 17 16 15 14 13 14 15 15 15 14 14 14 14 14 15 15 15 16 17 16 16 16 17 17 17 18 20 23 25 24 22 19 16 14 14 13 14 15 16 16 16 16 17 17 18 18 19 20 20 20 19 19 18 16 15 14 14 15 16 16 17 17 17 17
16 16 16 16 16 17 17 18 19 19 19 19 18 17 17 16 17 17 18 17 16 15 15 16 16 15 14 14 15 15 15 14 14 14 14 14 15 15 15 15 15 14 12 10 10 9 8 7 9 14 19 23 24 23 21 18 16 14 12 13 14 15 15 15 16 17 18 18 19 20 20 20 20 19 18 16 15 14 13 14 15 17 18 19 19 18
Wind_Direction
279 281 282 283 283 283 282 281 281 280 281 281 281 281 281 281 280 279 279 280 281 280 278 274 270 267 264 261 259 259 260 262 265 268 270 273 275 277 278 280 280 281 282 282 282 282 281 280 278 277 275 274 273 273 273 274 274 274 273 273 272 272 272 271 270 269 267 264 262 260 257 256 255 255 255 255 256 254 249 242 236 233 231 229 228 228
279 281 282 282 282 282 281 281 280 279 279 281 282 282 282 283 282 281 280 279 278 278 277 275 273 270 267 265 263 261 261 262 264 267 269 272 274 276 277 278 279 280 280 281 281 282 282 282 281 279 277 275 274 273 272 272 273 273 273 273 273 273 273 273 272 271 269 267 265 262 259 258 257 255 253 253 255 256 252 244 238 233 231 229 227 226
280 281 281 282 281 280 280 280 279 277 278 279 280 281 281 281 281 280 279 278 276 274 273 272 271 269 268 266 265 263 262 262 263 266 268 270 272 274 275 276 277 278 278 279 279 280 280 280 280 280 279 277 276 274 273 272 272 272 272 272 272 273 273 273 272 272 270 268 266 264 262 260 259 256 253 251 253 255 254 247 239 233 229 227 225 224
278 279 280 281 280 278 277 277 277 277 276 277 278 278 278 278 277 277 276 274 273 271 269 268 267 266 266 265 265 264 263 263 263 264 266 268 270 271 273 274 275 276 276 277 277 278 278 279 279 279 279 278 277 275 274 273 272 272 272 272 272 272 272 271 271 271 270 269 267 265 264 262 261 259 256 252 252 253 254 249 240 233 228 225 223 222
275 276 277 278 278 276 275 275 275 276 276 275 275 275 274 274 273 273 272 270 269 267 266 265 264 264 264 264 264 264 263 263 263 264 265 266 268 270 271 272 273 274 275 276 276 277 277 278 278 278 278 278 277 277 275 274 273 272 272 272 271 271 271 270 270 269 269 269 268 266 265 264 263 262 259 255 252 251 251 249 243 235 228 224 222 221
272 273 274 274 274 274 274 274 274 274 274 274 273 272 271 270 269 268 267 266 265 264 264 263 263 262 262 262 263 263 263 264 264 264 265 266 267 268 270 271 272 273 274 275 275 276 276 277 277 278 278 278 278 277 276 275 274 273 273 272 272 271 270 270 269 268 268 268 267 267 266 266 265 263 261 258 253 250 249 248 245 239 231 226 223 221
271 272 272 272 272 272 272 272 271 271 272 271 271 270 268 267 265 264 263 262 262 262 262 263 262 262 262 262 262 263 263 264 264 265 265 266 267 268 269 270 271 272 273 274 275 275 276 276 277 277 277 278 278 278 277 276 275 274 273 273 272 271 270 269 269 268 267 267 266 266 265 264 264 264 263 260 255 251 248 247 245 241 234 227 222 220
271 271 271 271 271 271 270 269 269 268 267 267 267 267 267 266 264 263 262 262 261 261 261 262 262 262 261 261 261 262 263 264 264 265 265 265 266 266 267 268 270 271 272 273 274 274 275 275 276 276 277 277 278 278 277 277 275 274 273 273 272 271 270 269 268 268 267 266 265 264 263 262 262 262 262 260 256 252 249 246 244 242 236 229 222 218
269 270 270 269 268 269 270 269 267 266 264 263 262 263 265 266 266 266 265 263 261 260 259 259 260 261 261 260 260 261 262 263 263 264 264 264 265 265 266 267 268 269 270 271 272 272 273 274 275 275 276 276 277 278 278 277 276 275 273 272 271 271 270 269 268 267 266 265 265 263 261 260 259 259 259 259 257 254 250 247 245 242 239 233 227 221
265 266 267 267 266 265 266 267 267 266 263 261 259 259 260 262 264 266 266 265 262 260 258 257 258 259 260 260 260 260 260 261 262 262 262 263 263 264 265 266 266 267 268 269 270 271 272 273 274 274 275 276 277 278 278 278 277 276 274 272 271 270 269 268 267 266 265 264 264 263 261 259 257 257 258 258 257 255 252 248 245 242 240 237 232 227
263 263 264 265 264 263 262 263 264 265 263 260 259 257 256 255 257 260 263 264 264 262 260 257 257 257 259 260 260 260 259 260 260 260 260 260 261 262 263 264 265 266 267 268 269 271 272 272 273 274 275 276 277 278 279 278 278 276 275 273 272 270 269 268 266 265 264 263 262 261 260 258 257 257 257 258 257 255 252 249 245 242 240 238 235 231
261 261 261 262 262 262 261 261 261 262 261 259 257 256 254 252 252 253 257 261 263 263 261 260 259 257 257 258 259 260 259 258 258 259 259 258 259 259 260 262 262 263 264 265 267 268 270 271 272 274 275 276 277 278 279 279 278 278 276 274 273 271 269 268 266 265 263 262 261 260 259 257 256 256 257 257 257 255 252 249 245 242 240 237 235 233
258 259 259 260 260 260 260 261 262 261 258 254 251 251 252 253 253 252 252 256 259 260 261 261 261 259 257 257 257 258 258 258 258 258 258 257 257 258 258 259 260 261 262 263 265 267 268 270 271 272 274 275 276 277 277 278 278 278 278 276 274 272 270 268 267 265 264 262 260 259 258 257 256 255 256 256 255 253 251 249 246 243 240 237 235 234
257 258 258 258 258 258 259 258 258 258 256 252 250 251 254 256 255 253 252 254 256 258 259 260 260 260 258 256 255 255 256 257 259 259 258 257 256 256 256 257 258 259 260 262 264 266 268 270 271 271 272 273 274 275 276 277 278 278 278 278 276 274 271 270 268 266 265 263 261 260 258 256 255 255 256 255 254 252 249 247 246 245 242 239 236 234
256 257 256 257 257 258 258 258 256 255 255 254 253 254 256 257 255 253 252 253 255 256 257 257 258 259 258 255 253 252 253 255 257 258 258 258 257 256 255 255 256 257 259 260 263 265 267 268 269 269 271 272 272 274 275 276 277 278 278 278 278 276 274 272 270 268 266 265 263 261 259 257 256 255 256 256 254 251 248 245 245 245 244 241 238 235
255 255 255 256 258 259 259 258 257 256 256 256 255 254 254 253 252 251 250 251 253 255 254 255 257 260 259 256 252 249 248 250 253 255 257 257 257 255 254 253 254 256 258 259 261 263 266 266 267 268 269 270 272 273 274 275 276 276 277 278 278 277 276 274 272 270 268 266 264 262 260 258 256 255 256 257 256 252 248 244 243 243 243 242 239 235
255 254 255 257 259 260 261 260 258 257 257 256 255 253 251 250 250 250 249 249 251 252 250 250 251 259 262 261 256 249 245 245 248 251 253 255 255 254 253 252 253 255 257 258 260 262 264 265 266 267 268 270 271 272 273 274 274 275 276 277 278 278 277 276 275 272 270 268 266 264 262 259 257 256 256 257 257 255 250 245 241 240 240 239 237 234
253 254 255 257 259 261 262 261 259 258 257 256 255 254 253 251 249 248 247 247 247 247 248 248 248 249 258 263 261 256 247 241 243 247 250 252 253 253 252 251 252 254 256 258 259 261 263 264 265 266 268 269 270 271 271 272 273 274 275 276 277 278 278 278 277 275 273 270 268 265 263 261 258 256 255 257 258 258 254 247 241 238 237 235 233 231
251 251 253 255 257 260 261 260 259 258 257 256 256 256 254 252 250 247 245 244 243 243 245 248 250 251 254 258 261 262 257 246 243 244 248 250 252 252 251 250 251 253 255 257 259 261 262 263 264 266 266 267 268 269 270 271 272 273 274 275 276 277 278 278 278 277 275 273 270 267 265 263 260 257 255 255 258 260 259 252 244 238 235 232 230 228
264 260 255 254 256 258 258 257 256 256 256 256 256 255 254 252 250 246 243 243 243 243 244 246 249 251 254 257 260 261 259 252 245 244 247 250 252 252 250 248 248 251 254 256 258 260 262 263 264 265 265 266 266 267 268 269 270 272 273 275 275 276 277 277 278 278 276 275 272 270 268 266 263 259 255 253 256 261 264 259 248 239 233 230 227 225
276 274 272 269 266 264 263 261 259 258 258 256 254 252 251 250 248 246 243 242 242 242 243 245 247 250 253 256 258 259 256 249 243 241 247 251 252 251 250 247 246 249 252 256 258 260 261 262 263 264 265 266 266 267 267 268 270 271 273 274 275 276 276 277 277 277 277 276 274 273 271 269 267 262 257 253 254 259 265 265 257 245 234 228 224 222
273 273 272 271 268 267 268 267 267 266 262 256 252 249 248 248 247 246 244 242 241 240 241 243 247 250 253 255 256 256 253 246 239 237 246 252 254 252 251 247 245 247 251 255 258 259 260 261 262 264 265 265 265 266 267 268 270 271 273 274 275 275 275 276 277 277 277 276 275 273 272 271 269 266 261 255 254 257 263 268 265 253 237 227 221 219
267 268 270 269 268 267 267 267 268 267 264 258 251 248 247 247 247 246 245 243 242 242 244 246 249 252 253 253 254 253 249 244 238 237 242 247 254 255 255 249 245 246 250 254 256 258 259 259 261 263 265 265 265 265 266 268 269 271 273 274 275 275 275 276 277 277 277 276 275 273 271 270 269 268 264 259 256 257 260 265 268 261 244 229 220 216
264 265 266 267 267 267 266 266 265 265 263 259 255 252 250 250 250 249 250 248 247 246 247 249 251 252 252 252 252 250 247 242 236 234 236 244 254 258 258 253 249 248 251 253 255 257 258 259 260 262 264 264 264 265 265 267 269 271 273 274 275 275 275 276 277 277 277 276 275 273 271 270 268 267 265 263 260 258 258 261 265 264 253 235 222 216
264 264 265 266 267 267 266 265 265 264 262 260 257 255 254 252 251 251 251 249 247 245 245 246 248 249 250 250 249 247 245 241 234 229 231 244 254 258 258 254 251 251 254 256 256 256 257 258 260 262 263 263 264 264 265 266 268 270 272 274 275 275 276 276 276 276 276 276 275 273 272 270 267 265 264 263 261 259 257 257 260 262 259 244 229 219
268 267 268 269 269 269 268 267 267 266 264 261 258 255 253 250 248 245 244 242 240 238 238 239 241 244 247 247 246 245 245 240 233 228 229 240 251 257 256 254 250 251 255 257 257 256 255 257 259 260 262 263 263 264 265 266 267 269 271 273 274 275 276 276 276 276 276 275 275 274 272 270 268 265 262 261 260 259 256 255 256 259 260 253 239 226
269 270 270 271 272 271 271 270 270 270 268 266 263 259 255 250 244 239 237 236 234 233 232 233 238 244 246 246 246 245 244 239 233 229 228 233 244 253 254 252 250 251 254 257 257 256 255 257 259 260 261 263 264 265 265 266 267 268 270 272 273 275 276 276 276 276 275 275 274 273 272 270 268 265 261 259 258 257 255 252 252 255 258 258 247 232
270 270 270 272 272 273 273 273 273 273 272 270 268 265 262 256 247 237 235 235 234 231 230 231 235 240 242 244 247 247 244 239 233 229 227 227 236 247 250 250 249 248 251 256 258 257 256 256 258 260 261 263 264 265 266 266 267 268 269 270 271 273 274 275 276 276 275 275 274 273 272 270 267 264 260 257 255 254 252 249 249 251 257 259 249 234
273 271 270 271 271 272 273 274 274 273 272 271 270 269 267 263 257 247 240 237 232 228 230 232 235 238 242 248 250 250 246 240 235 229 223 223 232 243 247 247 245 244 246 254 259 260 257 256 256 258 260 261 263 264 265 266 266 266 267 268 270 271 272 273 275 275 276 276 275 274 273 270 267 263 259 255 252 251 249 246 244 246 253 257 250 234
273 272 271 269 269 269 269 270 271 271 270 270 270 269 267 266 263 258 251 240 229 223 227 232 235 238 241 247 251 250 246 242 237 228 218 217 228 241 243 242 240 238 238 244 255 262 259 258 257 257 257 259 260 261 262 263 264 265 266 268 269 271 272 273 274 275 276 276 276 276 274 272 268 263 258 253 249 247 245 242 240 242 248 254 250 235
272 271 269 268 268 268 268 268 269 269 269 269 268 267 265 263 263 261 256 243 229 223 226 230 234 235 236 236 237 237 241 244 238 227 217 215 225 237 238 237 235 234 230 226 222 289 263 262 261 259 256 257 258 259 260 261 262 263 264 266 268 270 273 274 274 275 276 276 277 276 275 273 269 265 260 253 248 244 242 239 237 238 243 249 249 239
274 272 270 270 271 271 271 270 270 270 269 269 267 266 263 260 259 257 254 245 235 227 227 231 234 235 234 233 234 239 246 249 242 229 218 217 226 234 234 231 231 231 228 223 222 227 248 265 268 265 259 257 257 258 259 260 260 261 261 263 265 268 272 274 274 275 275 277 277 278 277 274 271 266 262 255 248 242 238 236 234 235 239 243 244 240
279 277 276 276 277 276 275 274 273 272 270 269 267 265 262 259 256 253 251 246 239 232 228 229 233 236 237 237 238 243 248 250 246 234 221 218 223 230 231 229 228 228 227 224 225 229 238 249 263 267 266 262 261 261 262 261 261 260 259 260 262 265 270 272 272 273 275 277 279 281 280 277 272 267 262 256 249 242 237 234 233 233 235 237 238 236
281 280 279 279 279 278 278 277 276 275 273 270 267 264 261 258 254 250 248 244 240 235 230 229 231 235 237 238 240 244 247 247 245 238 227 219 220 227 229 226 224 224 223 223 224 229 237 244 252 260 265 264 263 262 261 261 262 261 261 259 259 262 265 268 270 272 275 278 281 283 283 282 277 270 264 258 251 243 237 233 231 231 232 233 234 234
280 278 278 277 277 277 277 277 276 276 274 272 269 264 259 255 251 248 245 242 240 237 234 232 232 234 235 237 240 244 246 245 243 239 230 221 220 223 226 224 222 221 220 221 221 224 234 240 243 247 255 261 262 261 260 260 261 261 261 260 259 260 262 264 267 270 274 278 280 282 284 285 282 275 268 261 254 246 238 232 229 228 229 230 231 232
276 275 275 277 278 280 280 280 279 278 276 273 268 262 257 253 250 247 243 240 238 237 236 235 235 236 236 237 239 242 246 247 246 240 232 225 221 221 223 225 224 220 218 219 220 222 228 236 239 241 245 252 259 262 261 260 259 259 258 257 257 258 260 262 264 267 270 273 276 279 281 283 281 278 272 265 259 254 247 237 230 227 226 226 228 230
274 276 281 286 289 291 291 290 288 284 280 275 270 264 258 253 249 246 243 240 237 236 235 236 236 237 237 239 240 243 246 250 249 244 235 228 223 220 221 226 225 221 217 218 220 223 225 232 238 240 241 243 249 257 260 260 258 255 253 253 254 255 257 259 260 262 264 268 271 274 277 279 279 277 273 266 260 257 257 252 242 232 227 225 225 226
288 291 294 296 297 297 297 295 291 287 281 279 278 275 268 260 252 246 242 238 235 234 233 234 235 237 238 240 242 245 247 249 249 247 240 232 225 221 221 225 226 224 220 220 221 223 223 226 230 232 234 240 245 250 254 256 255 252 250 251 251 251 252 253 255 257 259 263 266 270 273 276 277 276 272 266 260 257 258 261 260 251 238 229 225 224
299 297 296 296 296 295 293 290 286 283 281 282 284 285 280 271 260 251 243 238 235 233 232 233 234 236 239 241 244 246 247 248 248 248 244 237 230 224 222 224 226 226 224 223 223 224 223 224 224 223 224 240 245 247 249 250 250 250 250 250 249 247 247 249 250 252 255 258 261 264 267 270 273 274 271 265 259 255 255 260 264 264 255 239 227 221
298 296 294 292 290 287 283 280 280 280 282 285 288 291 292 288 279 267 255 245 238 234 233 233 234 237 239 242 244 246 247 248 248 248 246 242 235 229 224 223 224 226 226 225 224 224 225 226 228 230 232 237 242 244 245 245 246 247 248 247 245 244 243 244 246 248 251 254 256 258 260 263 267 269 268 263 257 253 252 254 258 262 260 241 218 206
299 295 291 288 284 280 276 276 278 282 288 293 296 297 297 297 293 284 272 258 247 239 235 233 234 236 240 241 243 245 247 248 248 248 247 245 241 235 229 225 224 224 225 225 225 224 224 226 229 232 234 236 240 244 245 244 245 245 245 243 243 243 244 243 243 244 246 249 252 253 254 256 259 261 262 260 256 253 251 249 248 250 250 224 189 176
300 297 295 295 294 292 289 288 287 288 289 291 292 292 292 293 292 286 275 263 251 242 235 232 231 232 236 238 241 243 244 246 247 247 247 246 243 239 234 229 226 225 224 224 224 224 224 225 228 230 231 234 237 242 245 245 245 245 245 244 244 246 247 243 240 240 241 243 246 248 248 249 251 254 255 255 254 252 248 243 239 237 234 215 185 171
303 304 305 307 307 304 301 296 291 288 286 285 285 286 287 288 287 283 275 264 253 244 236 230 228 229 232 235 238 240 242 243 245 245 245 245 244 242 238 234 229 226 223 222 223 224 225 226 227 229 230 232 234 237 242 244 245 244 244 244 242 241 241 238 236 235 235 237 240 242 242 243 245 247 249 250 250 247 242 235 230 226 224 218 206 193
299 300 303 305 305 304 301 296 291 287 285 283 282 283 284 285 285 283 277 267 258 250 242 235 231 231 233 236 239 240 241 242 243 243 244 244 244 243 240 237 233 229 225 222 222 224 225 226 227 229 231 231 233 235 239 241 242 242 242 241 238 235 234 237 236 232 230 231 234 236 238 239 240 242 244 245 243 240 235 228 222 219 217 216 213 209
294 296 298 300 302 302 301 299 298 297 294 290 286 284 284 284 284 282 276 270 265 258 250 242 236 235 236 238 239 239 239 240 241 241 242 242 241 241 240 237 234 231 229 226 225 225 225 226 229 231 232 231 232 234 237 239 240 240 240 238 237 236 236 239 238 232 227 227 229 232 234 235 235 237 239 239 237 233 228 223 217 213 211 210 210 209
290 292 294 297 299 300 301 303 305 305 302 297 292 288 285 283 280 277 275 272 268 262 255 245 238 235 236 237 237 235 235 236 237 237 238 238 237 237 237 236 234 232 229 228 228 229 229 229 230 230 230 230 231 233 234 236 237 238 238 237 235 235 235 236 234 230 226 225 226 228 231 230 229 229 232 233 232 229 225 221 216 211 207 206 206 207
287 288 291 293 295 296 299 301 302 302 301 297 293 289 285 281 276 273 271 271 268 263 256 247 238 233 234 234 233 230 229 230 232 233 234 233 232 231 232 232 233 232 231 230 230 231 232 233 233 231 229 229 232 234 234 233 233 234 235 234 233 231 231 230 228 226 225 223 224 225 226 223 221 221 224 226 227 226 224 221 218 214 210 207 206 206
284 285 287 289 291 293 295 297 298 298 297 295 293 290 286 282 277 273 272 272 269 265 257 248 240 235 234 233 231 228 226 227 229 230 230 229 228 227 227 227 228 229 230 231 232 233 235 236 235 234 232 231 234 237 237 233 231 230 231 231 230 229 228 227 226 224 221 221 222 222 220 216 214 215 217 219 221 222 222 221 219 217 215 212 210 208
283 284 285 286 288 290 292 293 294 294 293 293 292 291 290 289 287 283 279 276 271 266 259 250 242 237 235 233 230 228 227 227 229 230 229 228 226 225 224 223 223 224 226 228 230 233 236 238 238 237 236 234 236 239 241 237 233 230 229 228 228 228 228 227 225 221 218 217 218 219 218 214 213 212 211 211 213 217 219 220 219 219 218 216 215 215
287 286 286 287 288 289 289 290 289 288 288 287 287 287 288 289 288 284 278 272 266 260 254 249 242 237 233 230 228 226 224 225 227 229 229 227 224 221 220 219 218 218 220 223 226 229 232 235 238 239 239 237 236 237 239 240 237 233 230 227 226 226 226 226 223 220 217 215 214 215 215 214 213 211 208 207 209 212 215 218 220 220 220 218 218 219
292 292 291 290 289 288 287 285 283 282 281 280 280 281 283 285 286 284 279 274 269 262 256 250 243 237 233 230 227 224 221 222 223 226 227 226 222 218 215 214 212 212 214 218 221 223 225 229 235 238 238 237 235 233 233 235 237 235 232 229 226 224 224 224 223 220 218 214 212 210 210 209 209 207 205 204 206 209 213 216 219 221 221 220 219 220
Height
736 735 736 737 737 735 733 734 735 734 732 732 732 732 732 731 731 731 731 730 730 729 728 728 727 727 727 727 727 727 726 726 726 725 725 724 723 722 722 721 721 720 720 719 719 718 717 717 717 716 716 716 716 716 715 715 715 714 714 713 713 713 712 712 712 712 711 711 711 711 711 711 711 711 711 711 711 710 710 710 710 711 712 714 715 717
735 734 734 735 735 733 732 732 733 733 731 731 731 731 730 730 729 729 729 729 728 727 727 726 726 725 724 724 724 724 724 723 723 723 722 722 721 721 720 719 719 718 717 717 717 716 716 715 715 714 714 713 713 713 713 713 712 712 712 711 711 711 710 710 709 709 709 709 709 708 708 708 708 708 708 708 708 708 707 707 707 708 709 711 712 714
733 733 732 733 733 732 730 730 730 731 730 729 729 729 729 728 727 727 727 727 726 726 725 725 724 723 722 722 721 721 721 721 721 721 720 720 719 718 718 717 717 716 715 715 714 714 713 713 712 712 712 711 711 711 710 710 710 710 709 709 709 708 708 708 707 707 707 706 706 706 706 706 706 706 705 706 706 706 706 705 705 705 706 708 710 712
732 731 730 731 731 730 728 728 728 728 728 727 727 727 727 726 726 725 725 724 724 723 722 722 721 721 720 719 719 718 718 718 718 718 718 717 717 716 716 715 714 713 713 712 712 712 711 711 710 710 709 709 709 708 708 708 707 707 707 707 707 706 706 706 705 705 704 704 704 704 704 703 703 703 703 703 703 704 704 703 703 703 704 705 707 709
731 730 729 729 728 727 726 726 726 726 726 726 725 724 724 724 723 722 722 722 721 720 719 719 718 718 717 717 716 716 716 716 716 716 715 715 715 714 713 713 712 711 711 710 710 709 709 708 708 708 707 707 707 706 706 705 705 705 705 704 704 704 703 703 703 703 702 702 702 702 701 701 701 701 700 701 701 702 702 702 702 702 702 703 704 706
728 728 727 727 726 724 723 724 724 724 724 723 722 722 721 721 720 719 719 718 718 717 717 716 716 715 715 714 713 713 713 713 713 713 713 712 712 712 711 710 710 709 709 708 708 707 707 707 706 706 705 705 704 704 703 703 703 702 702 702 702 701 701 701 701 700 700 700 699 699 699 699 698 698 698 698 699 700 701 701 701 701 701 702 702 704
725 725 725 725 723 722 722 722 722 722 722 721 720 719 718 718 717 717 716 715 715 714 713 713 712 712 712 711 711 711 711 711 711 711 710 710 710 709 709 708 707 707 707 706 706 705 705 704 704 703 703 702 702 702 701 701 700 700 700 700 699 699 699 698 698 698 697 697 697 697 697 697 696 696 696 697 697 698 699 699 700 700 700 701 701 702
723 722 723 723 722 720 720 719 719 720 720 719 717 716 715 715 715 714 713 712 712 712 711 710 710 709 709 709 709 709 708 708 708 708 708 707 707 707 706 706 705 705 704 704 704 703 703 702 702 701 701 700 700 699 699 698 698 697 697 697 697 696 696 696 696 695 695 695 695 695 694 694 694 694 694 695 695 696 697 697 698 699 699 700 700 701
722 721 720 720 720 719 717 716 716 717 717 717 715 714 713 713 712 712 711 710 710 709 709 708 707 706 706 706 706 706 706 706 706 705 705 705 704 704 703 703 703 703 702 702 702 701 701 700 700 699 699 698 698 697 697 696 696 695 695 694 694 694 693 693 693 693 692 692 692 692 692 692 692 692 692 693 693 694 695 696 697 697 698 698 699 700
720 719 718 717 717 717 716 713 713 713 715 714 713 712 712 711 710 709 708 707 707 707 707 706 705 704 703 703 704 704 704 703 703 703 702 702 702 702 701 701 701 700 700 700 699 699 699 698 698 697 697 696 696 695 695 694 693 693 692 692 692 691 691 691 691 690 690 690 690 690 690 690 690 690 691 691 691 692 693 694 695 696 696 697 698 699
717 717 716 714 714 713 713 712 711 711 712 712 711 710 709 709 708 707 706 704 703 704 704 703 702 702 701 701 701 702 702 701 700 700 700 700 699 699 699 699 698 698 698 698 697 697 697 696 696 695 695 694 694 693 692 692 691 691 690 689 689 689 688 688 688 688 688 687 687 688 688 688 688 688 688 689 689 690 691 692 693 694 695 696 697 698
714 713 713 712 711 710 710 709 709 709 709 709 708 707 706 705 706 705 704 702 701 701 701 701 700 699 699 699 699 699 699 698 697 697 697 697 697 697 697 697 696 696 696 696 695 695 694 694 693 693 693 692 692 691 691 690 689 688 688 687 687 686 686 686 686 685 685 685 685 685 685 686 686 686 686 687 687 688 689 689 691 692 693 694 695 696
712 711 710 709 708 708 707 707 707 706 706 706 706 704 703 702 703 703 702 700 698 698 698 698 697 697 697 697 697 697 697 696 695 695 694 694 694 694 694 694 694 693 693 693 693 692 692 692 691 691 691 690 689 689 688 688 687 687 686 685 685 684 684 683 683 683 683 683 683 683 683 683 684 684 684 685 685 686 687 687 688 690 691 692 693 694
709 708 708 707 706 705 705 705 704 703 703 702 702 701 700 700 700 700 699 697 696 696 697 696 695 694 694 695 695 695 695 694 693 692 692 692 692 692 692 692 692 691 692 691 691 690 690 690 689 689 688 688 687 687 686 686 685 684 684 683 682 682 682 681 681 681 681 681 681 681 681 681 682 682 682 683 683 684 684 685 686 687 688 689 691 692
707 706 706 704 703 702 702 702 702 701 699 699 699 699 698 698 698 698 697 695 694 694 695 694 693 692 691 692 692 693 693 692 692 691 690 689 690 690 691 690 690 689 689 689 688 687 687 688 687 687 686 686 685 685 684 684 683 682 682 681 681 680 680 679 679 679 679 679 679 679 679 679 679 680 680 681 681 682 682 683 684 685 686 687 688 690
704 704 703 702 700 699 699 699 699 698 697 697 697 697 697 696 695 695 695 693 692 692 693 692 691 690 688 689 690 691 691 690 689 688 688 687 687 688 689 689 688 687 687 687 686 686 686 686 685 685 684 684 683 683 682 682 682 681 680 680 679 678 678 677 677 677 677 677 677 677 677 677 677 678 678 679 679 679 680 681 682 683 684 685 686 687
702 702 700 699 698 697 697 697 697 696 695 695 695 695 694 693 692 692 692 691 691 691 691 690 690 688 686 686 687 688 688 688 687 686 686 685 685 686 687 687 686 685 685 685 684 684 684 683 683 683 682 682 682 681 681 680 680 679 678 678 677 677 676 676 676 675 675 675 675 675 675 675 675 676 676 677 677 677 678 678 679 681 682 684 685 686
700 699 698 697 696 695 695 695 694 694 693 693 692 692 691 691 690 690 690 689 689 689 688 688 687 686 685 684 684 685 686 686 685 684 684 683 683 684 685 685 684 683 683 682 682 682 682 682 682 681 681 680 680 680 679 679 678 677 677 676 676 675 675 674 674 673 673 673 673 673 673 673 673 674 674 675 675 675 676 676 677 679 680 682 683 684
697 697 697 695 694 693 693 692 692 692 691 691 690 690 689 688 688 688 688 687 687 687 686 686 685 684 683 682 682 683 684 684 684 683 682 682 682 682 683 683 682 682 681 680 680 680 680 680 680 679 679 679 678 678 677 677 676 676 675 675 674 674 673 672 672 672 672 671 671 671 671 671 671 672 672 673 673 673 673 674 675 676 678 679 681 682
695 694 694 693 692 692 691 690 690 690 689 688 688 688 687 686 686 686 685 685 685 684 684 683 682 681 681 680 680 681 682 683 682 682 681 681 680 680 681 681 681 680 679 678 678 678 678 678 677 677 677 677 676 676 676 675 675 674 673 673 672 672 672 671 671 670 670 669 669 669 669 669 669 670 670 671 671 671 672 672 672 673 675 677 678 680
692 691 691 691 691 689 688 687 687 687 687 686 686 685 684 684 684 683 683 682 682 682 682 681 680 679 679 679 679 679 681 681 681 680 680 679 678 678 678 679 679 678 677 676 676 676 677 676 676 675 675 674 674 674 674 673 673 672 672 672 671 670 670 669 669 669 668 668 667 667 667 667 667 668 668 668 669 669 669 670 670 671 672 673 675 677
690 689 688 688 688 687 685 684 684 684 684 684 683 682 682 682 681 680 680 680 680 679 679 678 677 677 677 677 677 677 679 679 679 679 678 677 676 675 676 677 677 677 675 674 674 674 674 674 673 673 672 672 672 672 672 672 671 671 670 670 669 669 668 668 667 667 667 666 666 666 666 666 666 666 666 667 667 667 668 668 668 668 669 670 672 673
688 686 685 685 685 684 683 682 682 682 682 681 681 680 679 679 678 677 677 677 677 676 676 675 675 675 675 675 675 675 676 677 677 677 677 676 674 673 674 675 676 675 673 672 672 672 672 672 671 671 670 670 670 670 670 670 669 669 669 668 668 667 667 666 666 665 665 665 664 664 664 664 664 664 664 664 665 666 666 666 666 667 667 667 668 670
685 683 682 682 681 681 680 679 679 679 678 678 677 677 676 675 675 675 675 674 674 674 674 674 674 673 673 673 673 673 673 674 675 675 675 674 672 671 672 673 673 672 671 670 671 671 671 670 669 669 668 668 668 668 668 668 668 667 667 667 666 666 665 664 664 663 663 663 662 662 662 662 662 662 662 663 663 664 664 665 665 665 665 666 667 668
681 680 679 678 678 677 677 677 676 676 675 675 674 673 673 672 672 672 672 672 672 672 672 672 672 671 671 671 671 671 671 672 673 673 673 672 670 669 670 671 671 670 669 668 669 669 669 668 667 667 667 666 666 666 666 666 666 666 665 665 664 664 663 663 662 662 662 661 661 661 661 661 661 661 661 661 661 662 662 663 663 664 664 665 665 666
678 677 677 676 675 675 674 674 673 673 673 672 672 671 670 670 669 669 669 669 670 670 670 670 669 668 668 669 669 668 668 670 671 671 671 670 669 667 667 668 669 668 667 667 667 667 667 666 666 665 665 664 664 664 664 664 664 664 664 663 663 662 662 661 661 660 660 660 659 659 659 658 659 659 659 659 660 660 661 662 662 662 662 663 664 665
676 675 674 673 673 672 672 671 671 671 670 670 669 669 668 667 667 667 666 666 667 668 668 667 666 666 666 666 666 666 666 667 668 668 668 668 667 666 665 666 667 667 666 665 666 666 666 665 664 663 663 663 662 662 662 662 662 662 662 662 661 661 660 660 659 659 658 658 657 657 657 657 657 657 657 657 658 659 659 660 660 661 661 662 663 663
672 672 671 671 670 670 669 669 668 668 668 667 667 667 667 666 665 664 663 664 665 666 665 665 664 664 663 663 663 663 664 664 665 665 666 667 666 663 662 663 664 665 665 664 664 664 664 663 662 662 662 661 661 661 661 661 661 660 660 660 659 659 658 658 657 657 657 656 656 656 655 655 655 655 656 656 657 657 658 658 659 660 660 661 662 662
669 668 668 667 667 667 667 666 666 665 665 665 665 665 665 664 662 661 661 662 663 663 663 662 662 662 661 660 660 661 661 661 661 662 663 664 663 661 660 662 662 663 663 663 662 662 662 661 661 660 660 660 659 659 659 659 659 658 658 658 658 657 657 657 656 656 655 655 654 654 654 654 654 654 654 654 655 656 656 657 658 659 660 661 661 661
666 665 664 664 664 663 663 663 663 662 662 662 662 662 662 662 660 659 658 659 660 660 660 659 659 659 659 659 659 659 658 657 658 660 661 662 660 658 658 660 660 661 662 662 662 661 659 658 658 658 658 658 658 657 657 657 657 657 657 656 656 656 655 655 655 654 654 654 653 653 652 652 652 652 652 653 653 654 655 656 657 658 659 660 660 660
663 662 662 661 661 661 660 660 660 659 659 659 659 659 659 659 658 657 657 657 657 657 657 657 657 657 657 657 657 656 654 653 655 657 658 658 657 655 656 657 658 658 659 660 661 660 657 656 656 656 656 656 656 656 655 655 655 655 655 655 654 654 654 654 653 653 653 652 652 652 651 651 651 651 651 651 652 652 653 655 656 657 658 659 659 660
661 661 660 659 659 658 658 658 657 657 657 656 656 656 655 655 655 655 655 654 654 654 654 654 654 654 654 655 654 652 650 651 652 654 654 655 654 653 654 655 655 656 657 657 658 657 657 655 654 654 655 655 654 654 654 654 654 654 654 653 653 652 652 652 652 652 651 651 651 650 650 649 649 649 649 650 650 651 652 653 654 656 657 658 658 659
659 658 658 657 657 657 656 655 655 655 654 654 653 653 652 652 652 652 652 652 651 651 651 651 651 651 651 651 651 649 648 649 650 652 652 652 651 651 652 652 653 654 654 655 655 655 655 654 653 653 653 653 653 653 653 653 653 652 652 652 652 651 651 651 651 650 650 650 649 649 648 648 648 648 648 648 649 649 650 652 653 654 655 656 657 658
657 656 656 655 655 654 654 653 653 652 652 652 651 650 650 649 649 649 649 648 648 647 647 647 648 648 648 648 648 647 646 647 648 650 650 650 649 649 650 651 651 652 652 653 653 653 653 652 652 652 652 652 652 652 652 652 652 652 651 651 651 650 650 650 649 649 649 648 648 647 647 647 647 647 647 647 647 648 649 650 651 652 653 655 656 657
654 654 653 653 652 652 652 651 651 650 650 649 648 648 647 647 646 646 646 646 645 644 644 644 644 645 645 645 645 644 644 644 646 647 648 647 647 647 648 648 649 650 651 651 651 652 651 651 651 651 651 651 650 650 650 650 650 650 650 650 649 649 649 649 648 648 648 647 647 647 646 646 646 646 646 646 646 647 647 648 650 651 652 653 654 656
652 652 651 651 651 650 649 649 648 648 647 647 646 645 644 643 643 643 642 642 642 642 641 641 641 642 642 642 642 642 642 642 644 645 645 645 645 646 646 646 647 647 648 648 649 649 649 649 649 649 650 649 649 648 648 649 649 649 649 648 648 648 648 648 648 647 647 647 647 646 646 645 645 645 645 645 645 646 646 647 648 649 650 652 653 654
650 650 649 649 649 649 648 647 647 646 645 644 643 642 641 640 640 639 639 639 639 639 639 639 639 639 639 640 640 640 640 641 642 642 643 643 643 644 644 644 644 645 646 647 647 647 647 648 648 648 648 648 647 647 647 647 647 647 647 647 647 647 647 647 647 647 647 646 646 646 645 645 644 644 644 644 645 645 645 646 647 647 648 650 651 652
649 648 648 648 648 648 647 646 645 645 644 643 642 640 640 639 637 636 636 635 635 636 636 636 636 637 637 637 637 638 638 639 640 640 641 641 641 642 642 642 642 643 644 644 645 645 646 646 646 646 646 646 645 645 645 646 646 646 645 645 645 646 646 646 646 646 646 646 645 645 645 644 644 644 643 643 644 644 644 645 645 646 647 648 649 651
648 648 647 647 647 646 646 645 644 643 642 641 640 639 639 638 636 635 633 633 632 633 633 633 634 634 635 635 636 636 637 637 638 638 639 639 639 639 640 640 641 641 642 642 643 643 644 644 644 644 644 644 643 644 644 644 644 644 644 644 644 644 644 645 645 645 645 645 645 645 644 644 644 643 643 643 643 643 644 644 644 645 645 646 647 648
647 647 646 645 645 645 644 643 642 641 640 639 638 637 637 637 636 635 634 632 632 631 631 632 632 632 633 633 634 634 635 635 636 636 637 637 637 637 638 638 639 639 640 641 641 641 642 642 642 642 642 642 642 642 642 643 643 643 643 643 643 643 643 643 644 644 644 644 644 644 644 644 644 643 643 643 643 643 643 644 644 645 645 645 645 646
647 646 645 644 643 642 641 641 640 639 638 637 637 636 635 635 635 634 634 633 632 631 630 631 631 631 631 632 632 632 632 633 633 634 635 635 635 636 636 636 637 637 638 639 639 639 640 640 640 640 640 641 641 641 641 641 642 642 642 642 642 642 642 642 642 643 643 643 643 643 643 643 643 643 643 643 643 643 643 644 644 645 645 645 645 645
646 645 644 642 642 641 640 639 639 638 637 636 636 635 634 634 633 633 632 632 631 630 629 629 629 629 629 629 629 630 630 631 631 632 632 633 633 634 634 634 635 636 636 637 637 637 637 638 638 639 639 639 640 640 640 640 640 641 641 641 641 641 641 641 641 642 642 642 642 643 643 643 643 643 643 643 643 643 644 644 644 645 646 646 646 647
646 645 644 643 642 641 640 639 638 637 636 635 634 633 633 632 632 632 631 630 629 628 628 627 627 627 627 627 627 628 628 628 629 630 630 631 631 632 632 632 633 634 634 635 635 635 636 636 637 637 637 638 638 638 638 638 639 639 640 640 640 641 640 640 640 641 641 641 642 642 642 642 643 643 643 643 643 643 644 644 645 645 646 646 647 648
645 644 643 642 641 640 639 638 637 635 634 633 633 632 632 631 631 631 630 629 628 627 627 627 626 626 626 626 626 626 626 627 627 628 628 629 629 630 630 631 631 632 632 633 633 634 634 635 635 635 636 637 637 637 637 637 637 638 638 639 639 639 639 639 639 640 640 640 641 641 642 642 642 643 643 643 643 644 644 644 644 645 646 647 647 648
644 643 642 641 640 639 638 637 636 635 634 633 632 631 630 630 630 629 629 628 627 627 626 626 626 626 625 624 624 625 625 625 626 626 626 627 627 628 629 629 630 630 631 631 631 632 632 633 633 633 634 635 635 635 635 635 636 636 637 637 638 638 637 638 638 639 639 639 640 640 641 641 642 642 643 643 643 643 644 644 644 645 646 646 647 648
642 641 640 639 639 638 637 636 635 634 633 632 631 630 629 629 628 628 627 627 626 626 625 625 625 624 623 622 622 623 623 624 624 624 625 625 626 626 627 627 628 628 629 629 630 630 631 631 632 632 633 633 633 633 633 634 634 635 635 636 637 637 637 637 637 637 638 638 639 639 640 641 642 642 642 642 643 643 643 644 644 645 646 646 647 648
641 640 639 638 637 637 636 635 634 633 632 631 630 629 628 627 627 626 625 625 624 624 623 623 622 622 621 620 621 621 622 622 622 622 623 623 624 624 625 626 626 627 627 627 628 628 629 630 630 631 632 632 632 632 632 632 633 633 634 634 635 635 636 636 636 636 637 637 638 638 639 640 641 641 642 642 642 643 643 644 644 645 645 646 647 647
639 638 637 637 636 635 634 633 633 632 631 630 628 627 627 626 625 624 623 623 623 622 621 621 620 620 619 619 619 619 620 620 620 621 622 622 622 623 623 624 624 625 626 626 627 627 627 628 629 629 630 630 630 630 630 631 632 632 632 633 633 634 634 634 634 635 636 636 637 637 638 639 640 640 641 641 642 642 642 643 644 644 645 646 646 647
638 637 636 635 635 634 633 632 632 631 630 628 627 626 625 625 624 623 622 622 621 621 620 619 618 618 618 617 617 618 618 618 619 619 620 620 621 622 622 623 623 624 624 625 625 626 626 627 627 627 628 628 629 629 629 629 630 630 631 631 632 632 632 632 633 634 634 635 635 636 637 637 638 639 640 640 641 641 642 642 643 643 644 645 646 646
637 636 635 634 633 632 632 631 630 629 628 627 626 625 624 623 623 622 621 620 619 618 617 617 617 616 616 616 616 616 617 617 617 618 618 619 620 620 621 622 622 623 623 624 624 625 625 625 625 625 626 627 627 627 628 628 629 629 630 630 630 630 631 631 632 632 633 633 634 635 636 636 637 638 639 639 640 640 641 642 642 643 643 644 645 646
636 635 634 633 632 632 631 629 628 627 626 625 624 623 622 622 621 620 619 618 617 616 615 615 615 614 614 614 614 615 615 616 616 617 617 617 618 619 619 620 621 622 622 622 623 623 624 624 623 623 623 624 625 626 626 627 627 628 628 628 628 629 629 630 630 631 631 632 632 633 634 635 636 637 637 638 639 640 640 641 641 642 642 643 644 645